Showing default

HULIANWANG DIGUI-165, 68657

Orbit data source: Space-Track

HULIANWANG DIGUI-165, 68657 is a payload satellite owned by Zhongguo Xingwang (CN) in LEO that was launched on Wed, 08 Apr 2026 UTC via a CHANG ZHENG 6A launch vehicle from the Taiyaun Space Center, China (TSC). Payload-class satellites include a variety of spacecraft equipped with specific instruments for various scientific and technological missions. These include communications satellites like Starlink; space stations such as the ISS; scientific satellites like the Hubble; Earth observation satellites from companies like Planet Labs, Umbra, and HawkEye 360; GPS; miniature CubeSats for education and research; and military/defense satellites.

Loading next visibility...
Identifier
68657, 2026-076B
Orbit
LEO
Country
Flag of CNCN / PRC
Related business
Manufacturer
SECM
Mission
Operational spacecraft
Bus & Motor
XINGWANG S, Unknown motor
Mass
~800 kg wet, ~800 kg dry
Launch date (UTC)
2026-04-08 (2 months ago)
Launch vehicle
CHANG ZHENG 6A
Launch site
Taiyaun Space Center, China (TSC)
Object type
Payload
Rocket body
Debris
Shape & HBR
Unknown shape, 14.5 m
Radar Cross Section
RCS unknown

Expand to show TLE details & history
Last TLE update: 16 hours ago

TLE from 16 hours ago
0 HULIANWANG DIGUI-165
1 68657U 26076B   26145.32764648  .00000074  00000-0  11817-3 0  9993
2 68657  86.5001  51.6227 0001665  85.3236 274.8094 13.33927402  6343
Epoch: 2026-05-25T07:51Z
TLE epoch observation values (Epoch: 2026-05-25T07:51:48.655Z)
Latitude
-0°
Longitude
50.75295°
Altitude
1,134.789 km
Speed
7.285 km/s
True Right ascension
03h 26m 29s
True Declination
0° 00' 00"
Sunlit
Object was in daylight at epoch
Visualization orbit readout
Latitude
Unknown
Longitude
Unknown
Altitude
Unknown
Speed
Unknown
Apparent Right ascension
Unknown
Apparent Declination
Unknown
Sunlit
N/A
Visualization observer readout
Local Sidereal Time
09:11:42
Azimuth
Unknown
Elevation
Unknown
Doppler factor
Unknown
Orbital elements
Apogee altitude
1,130.342 km
Perigee altitude
1,127.842 km
Semi-major axis
7,507.229 km
Eccentricity
0.00017
Inclination
86.5001°
RAAN
51.6227°
Arg. of periapsis
85.3236°
True anomaly
274.79039°
Mean anomaly
274.8094°
Eccentric anomaly
274.79989°
Mean motion
3.33675 °/min
Orbital period
107.89 mins
BSTAR
0.00011817
Loading maneuver chart data...
Computing Atmospheric mass density...
Loading historical data...
Loading historical data...
Loading historical data...
Loading historical data...
Loading historical data...
Loading historical data...
Loading historical data...

Documentation

Showing up to 5 results
|